ASTRA 1KR

Last updated on Sun Apr 12 2026 00:02:51 GMT+0000 (Coordinated Universal Time)

1 29055U 06012A 26101.52441742 .00000121 00000+0 00000+0 0 9991 2 29055 0.3004 82.2697 0003524 300.1820 25.0779 1.00273425 45027
UTC large
Height (km)
Speed (km/s)
/
Latitude / Longitude
Inclination (degrees)
Orbital Period (minutes)
Azimuth
Elevation
Range (km)
Doppler Factor

Next 0 passes for location: London (51.5072 / 0.1276)

Sorry there are no passes over London.
ASTRA 1KR